CZ-6A DEB, 55891

Orbit data source: Space-Track

CZ-6A DEB, 55891 is space debris in SSO originally from a launch on Fri, 11 Nov 2022 UTC launched from the Taiyaun Space Center, China (TSC). Debris objects in space refer to the collection of defunct objects orbiting the Earth. Examples of debris include non-operational satellites, rocket bodies, and fragments generated from explosions, collisions, or faulty payload assembly.

Loading next visibility...
Identifier
55891, 2022-151AAP
Orbit
SSO
Country
Flag of CNCN / PRC
Related business
Manufacturer
SAST
Mission
Spacecraft
Bus & Motor
Unknown
Mass
Unknown
Launch date (UTC)
2022-11-11 (4 years ago)
Launch vehicle
Unknown
Launch site
Taiyaun Space Center, China (TSC)
Object type
Payload
Rocket body
Debris
Shape & HBR
Unknown shape, 0.1 m
Radar Cross Section
Small (<0.1 m²)

Expand to show TLE details & history
Last TLE update: 14 hours ago

TLE from 14 hours ago
0 CZ-6A DEB
1 55891U 22151AAP 26235.95005372  .00000246  00000-0  16402-3 0  9996
2 55891  98.8531 230.6375 0060213 173.4493 186.7477 14.09102777188985
Epoch: 2026-08-23T22:48Z
TLE epoch observation values (Epoch: 2026-08-23T22:48:04.641Z)
Latitude
-0.00008°
Longitude
-83.62059°
Altitude
908.647 km
Speed
7.376 km/s
True Right ascension
15h 22m 33s
True Declination
0° 00' 00"
Sunlit
Object was in daylight at epoch
Visualization orbit readout
Latitude
Unknown
Longitude
Unknown
Altitude
Unknown
Speed
Unknown
Apparent Right ascension
Unknown
Apparent Declination
Unknown
Sunlit
N/A
Visualization observer readout
Local Sidereal Time
03:50:31
Azimuth
Unknown
Elevation
Unknown
Doppler factor
Unknown
Orbital elements
Apogee altitude
903.204 km
Perigee altitude
816.043 km
Semi-major axis
7,237.761 km
Eccentricity
0.00602
Inclination
98.8531°
RAAN
230.6375°
Arg. of periapsis
173.4493°
True anomaly
186.66723°
Mean anomaly
186.7477°
Eccentric anomaly
186.7074°
Mean motion
3.52482 °/min
Orbital period
102.13 mins
BSTAR
0.00016402
Loading maneuver chart data...
Computing Atmospheric mass density...
Loading historical data...
Loading historical data...
Loading historical data...
Loading historical data...
Loading historical data...
Loading historical data...
Loading historical data...

Documentation

Showing up to 5 results
|